Change the Weather History Date:

Sunday, November 25, 2012

  Actual Average Record
Temperature  
Mean Temperature 56 °F -  
Max Temperature 66 °F 57 °F 73 °F (2006)
Min Temperature 46 °F 41 °F 37 °F (1996)
Degree Days  
Heating Degree Days 9    
Growing Degree Days 6 (Base 50)    
Moisture  
Dew Point 47 °F    
Average Humidity 77    
Maximum Humidity 94    
Minimum Humidity 49    
Precipitation  
Precipitation 0.00 in 0.10 in - ()
Sea Level Pressure  
Sea Level Pressure 30.17 in    
Wind  
Wind Speed 7 mph ()    
Max Wind Speed 10 mph    
Max Gust Speed -    
Visibility 6.5 miles    
Events      
Averages and records for this station are not official NWS values.
T = Trace of Precipitation, MM = Missing Value Source: Averaged Metar Reports

Daily Weather History Graph

Daily Weather History Graph

Search for Another Location

Airport or City:

Trip Planner

Search our weather history database for the weather conditions in past years. The results will help you decide how hot, cold, wet, or windy it might be!

Date:

Astronomy

Nov. 25, 2012 Rise Set
Actual Time 7:26 AM CET 4:56 PM CET
Civil Twilight 6:55 AM CET 5:27 PM CET
Nautical Twilight 6:21 AM CET 6:01 PM CET
Astronomical Twilight 5:48 AM CET 6:35 PM CET
Moon 3:06 PM CET (11/25) 4:23 AM CET (11/25)
Length of Visible Light 10h 31m
Length of Day
9h 30m
Waxing Gibbous, 91% of the Moon is Illuminated
Nov 25
Waxing Gibbous
Nov 28
Full
Dec 6
Last Quarter
Dec 13
New
Dec 20
First Quarter

Hourly Weather History & Observations

Time (CET) Temp. Windchill Dew Point Humidity Pressure Visibility Wind Dir Wind Speed Gust Speed Precip Events Conditions
12:00 AM 50.0 °F - 44.6 °F 82% 30.21 in - NE 9.2 mph - N/A   Clear
12:30 AM 50.0 °F - 44.6 °F 82% 30.21 in 6.2 mi NNE 9.2 mph - N/A   Unknown
1:00 AM 49 °F - 44 °F 79% 30.22 in 34 mi NNE 9.2 mph - -   Clear
1:00 AM 50.0 °F - 44.6 °F 82% 30.21 in 6.2 mi NNE 9.2 mph - N/A   Unknown
1:30 AM 48.2 °F - 44.6 °F 87% 30.21 in 6.2 mi NNE 9.2 mph - N/A   Unknown
2:00 AM 50.0 °F - 44.6 °F 82% 30.18 in 6.2 mi NE 8.1 mph - N/A   Unknown
2:30 AM 50.0 °F - 42.8 °F 76% 30.18 in 6.2 mi NNE 9.2 mph - N/A   Unknown
3:00 AM 50.0 °F - 42.8 °F 76% 30.18 in 6.2 mi NE 9.2 mph - N/A   Unknown
3:30 AM 48.2 °F - 42.8 °F 82% 30.18 in 6.2 mi NE 8.1 mph - N/A   Unknown
4:00 AM 48.2 °F - 42.8 °F 82% 30.18 in 6.2 mi NNE 9.2 mph - N/A   Unknown
4:30 AM 48.2 °F - 42.8 °F 82% 30.18 in 6.2 mi NE 9.2 mph - N/A   Unknown
5:00 AM 48.2 °F - 42.8 °F 82% 30.18 in 6.2 mi NE 9.2 mph - N/A   Unknown
5:30 AM 48.2 °F - 42.8 °F 82% 30.18 in 6.2 mi NE 10.4 mph - N/A   Unknown
6:00 AM 48.2 °F - 42.8 °F 82% 30.18 in 6.2 mi NE 9.2 mph - N/A   Partly Cloudy
6:30 AM 48.2 °F - 42.8 °F 82% 30.18 in 6.2 mi NE 6.9 mph - N/A   Partly Cloudy
7:00 AM 48 °F - 42 °F 72% 30.20 in 19 mi NE 9.2 mph - -   Scattered Clouds
7:00 AM 48.2 °F - 42.8 °F 82% 30.18 in 6.2 mi NE 9.2 mph - N/A   Partly Cloudy
7:30 AM 50.0 °F - 41.0 °F 71% 30.18 in - NE 9.2 mph - N/A   Clear
8:00 AM 46.4 °F 41.5 °F 41.0 °F 81% 30.18 in 6.2 mi NE 10.4 mph - N/A   Partly Cloudy
8:30 AM 50.0 °F - 42.8 °F 76% 30.18 in 6.2 mi NNE 10.4 mph - N/A   Partly Cloudy
9:00 AM 50.0 °F - 44.6 °F 82% 30.18 in 6.2 mi NE 6.9 mph - N/A   Partly Cloudy
9:30 AM 53.6 °F - 44.6 °F 72% 30.18 in 6.2 mi NE 9.2 mph - N/A   Partly Cloudy
10:00 AM 57.2 °F - 46.4 °F 67% 30.18 in 6.2 mi NE 8.1 mph - N/A   Partly Cloudy
10:30 AM 60.8 °F - 48.2 °F 63% 30.18 in 6.2 mi NNE 3.5 mph - N/A   Partly Cloudy
11:00 AM 62.6 °F - 48.2 °F 59% 30.18 in 6.2 mi Variable 2.3 mph - N/A   Partly Cloudy
11:30 AM 66.2 °F - 46.4 °F 49% 30.18 in 6.2 mi Variable 1.2 mph - N/A   Partly Cloudy
12:00 PM 66.2 °F - 46.4 °F 49% 30.18 in 6.2 mi Variable 2.3 mph - N/A   Partly Cloudy
12:30 PM 66.2 °F - 48.2 °F 52% 30.18 in 6.2 mi Variable 2.3 mph - N/A   Partly Cloudy
1:00 PM 66 °F - 53 °F 53% 30.18 in 31 mi SW 3.5 mph - -   Scattered Clouds
1:00 PM 66.2 °F - 53.6 °F 64% 30.15 in 6.2 mi SW 3.5 mph - N/A   Partly Cloudy
1:30 PM 66.2 °F - 53.6 °F 64% 30.15 in 6.2 mi SW 4.6 mph - N/A   Partly Cloudy
2:00 PM 66.2 °F - 55.4 °F 68% 30.15 in 6.2 mi WSW 4.6 mph - N/A   Partly Cloudy
2:30 PM 66.2 °F - 55.4 °F 68% 30.12 in 6.2 mi WSW 5.8 mph - N/A   Partly Cloudy
3:00 PM 64.4 °F - 55.4 °F 73% 30.12 in 6.2 mi WSW 6.9 mph - N/A   Partly Cloudy
3:30 PM 64.4 °F - 55.4 °F 73% 30.12 in 6.2 mi WSW 6.9 mph - N/A   Partly Cloudy
4:00 PM 64.4 °F - 55.4 °F 73% 30.15 in 6.2 mi SW 5.8 mph - N/A   Partly Cloudy
4:30 PM 62.6 °F - 53.6 °F 72% 30.12 in 6.2 mi SW 3.5 mph - N/A   Partly Cloudy
5:00 PM 60.8 °F - 53.6 °F 77% 30.12 in 6.2 mi SSW 1.2 mph - N/A   Partly Cloudy
5:30 PM 59.0 °F - 53.6 °F 82% 30.15 in 6.2 mi SE 2.3 mph - N/A   Scattered Clouds
6:00 PM 57.2 °F - 53.6 °F 88% 30.15 in 6.2 mi East 3.5 mph - N/A   Scattered Clouds
6:30 PM 55.4 °F - 51.8 °F 88% 30.15 in 6.2 mi NE 6.9 mph - N/A   Partly Cloudy
7:00 PM 54 °F - 51 °F 86% 30.16 in 7 mi NE 6.9 mph - -   Scattered Clouds
7:00 PM 55.4 °F - 51.8 °F 88% 30.15 in 6.2 mi NE 6.9 mph - N/A   Partly Cloudy
7:30 PM 53.6 °F - 50.0 °F 88% 30.15 in 6.2 mi ENE 6.9 mph - N/A   Partly Cloudy
8:00 PM 53.6 °F - 50.0 °F 88% 30.15 in 6.2 mi NE 5.8 mph - N/A   Partly Cloudy
8:30 PM 51.8 °F - 48.2 °F 88% 30.15 in 6.2 mi ENE 8.1 mph - N/A   Partly Cloudy
9:00 PM 50.0 °F - 48.2 °F 94% 30.15 in 6.2 mi NE 6.9 mph - N/A   Partly Cloudy
9:30 PM 50.0 °F - 46.4 °F 87% 30.15 in 6.2 mi ENE 9.2 mph - N/A   Partly Cloudy
10:00 PM 50.0 °F - 46.4 °F 87% 30.15 in - NNE 8.1 mph - N/A   Clear
10:30 PM 50.0 °F - 44.6 °F 82% 30.15 in - NE 10.4 mph - N/A   Clear
11:00 PM 48.2 °F - 44.6 °F 87% 30.15 in - NE 8.1 mph - N/A   Clear
11:30 PM 48.2 °F - 42.8 °F 82% 30.12 in - NE 9.2 mph - N/A   Clear